This demonstration page uses our WeatherBlox Daily Observations layout. Learn more.

Left ArrowRight Arrow

Hourly Observations for February 11, 2019

Temp ( °F °C ) Dew Point ( °F °C ) Humidity (%) Winds ( mph kmh ) Pressure ( in mb ) Visibility ( mi km ) Precip ( " mm )
12:53 am 00:53 Cloudy with Light Rain 38 3.3 38 3.3 100 100 E 3 6 30.31 1026 5 8 0.03 0.76
1:53 am 01:53 Cloudy 38 3.3 38 3.3 100 100 SE 3 6 30.29 1026 8 13 0.00 0.03
2:37 am 02:37 Cloudy 38 3.3 38 3.3 100 100 SSE 3 6 30.30 1026 10 16 0.00 0.00
2:53 am 02:53 Cloudy with Mist and Fog 38 3.3 38 3.3 100 100 Calm 30.27 1025 4 6 0.00 0.00
3:53 am 03:53 Cloudy with Mist and Fog 38 3.3 38 3.3 100 100 E 3 6 30.25 1025 2 3 0.00 0.00
4:11 am 04:11 Cloudy with Mist and Fog 38 3.3 38 3.3 100 100 Calm 30.27 1025 2 3 0.00 0.00
4:53 am 04:53 Cloudy with Mist and Fog 39 3.9 39 3.9 100 100 Calm 30.24 1024 2 3 0.00 0.00
5:04 am 05:04 Cloudy with Mist and Fog 39 3.9 39 3.9 100 100 E 3 6 30.26 1025 2 3 0.00 0.00
5:24 am 05:24 Cloudy with Mist and Fog 38 3.3 38 3.3 100 100 E 3 6 30.25 1025 2 3 0.00 0.00
5:33 am 05:33 Cloudy with Mist and Fog 39 3.9 39 3.9 100 100 Calm 30.25 1024 3 4 0.00 0.00
5:41 am 05:41 Cloudy with Mist and Fog 39 3.9 39 3.9 100 100 ESE 3 6 30.25 1024 4 6 0.00 0.00
5:53 am 05:53 Cloudy with Mist and Fog 39 3.9 39 3.9 100 100 Calm 30.22 1024 4 6 0.00 0.00
6:09 am 06:09 Cloudy with Mist and Fog 39 3.9 39 3.9 100 100 E 3 6 30.24 1024 2 2 0.00 0.00
6:53 am 06:53 Cloudy with Mist and Fog 39 3.9 39 3.9 100 100 Calm 30.21 1023 2 3 0.00 0.00
7:53 am 07:53 Cloudy with Mist and Fog 40 4.4 40 4.4 100 100 Calm 30.20 1023 1 2 0.00 0.00
8:53 am 08:53 Cloudy with Mist and Fog 41 5 41 5 100 100 Calm 30.20 1023 1 2 0.00 0.00
9:53 am 09:53 Cloudy with Mist and Fog 43 6.1 43 6.1 100 100 SSE 3 6 30.19 1022 1 2 0.00 0.00
10:53 am 10:53 Cloudy with Mist and Fog 44 6.7 44 6.7 100 100 Calm 30.17 1022 1 1 0.00 0.00
11:53 am 11:53 Cloudy with Mist and Fog 47 8.3 47 8.3 100 100 S 3 6 30.15 1021 2 3 0.00 0.00
12:53 pm 12:53 Cloudy with Mist and Fog 48 8.9 48 8.9 100 100 SSW 3 6 30.13 1020 2 3 0.00 0.00
1:53 pm 13:53 Cloudy with Mist and Fog 51 10.6 50 10 96 96 SSE 3 6 30.09 1019 2 3 0.00 0.00
2:03 pm 14:03 Cloudy with Mist and Fog 51 10.6 50 10 96 96 Calm 30.09 1019 2 3 0.00 0.00
2:53 pm 14:53 Cloudy with Mist and Fog 54 12.2 52 11.1 93 93 SE 6 9 30.05 1018 3 5 0.00 0.00
3:53 pm 15:53 Cloudy with Mist and Fog 56 13.3 53 11.7 90 90 SSE 6 9 30.04 1017 5 8 0.00 0.00
4:53 pm 16:53 Cloudy with Mist and Fog 56 13.3 53 11.7 90 90 E 5 7 30.04 1017 5 8 0.00 0.00
5:53 pm 17:53 Cloudy with Mist and Fog 55 12.8 53 11.7 93 93 E 3 6 30.04 1017 9 14 0.00 0.03
6:53 pm 18:53 Cloudy with Light Rain 54 12.2 53 11.7 97 97 E 3 6 30.05 1018 6 10 0.01 0.25
7:53 pm 19:53 Cloudy with Light Rain 53 11.7 53 11.7 100 100 E 5 7 30.06 1018 5 8 0.01 0.25
8:35 pm 20:35 Cloudy with Light Rain 52 11.1 52 11.1 100 100 E 3 6 30.06 1018 6 10 0.02 0.51
8:53 pm 20:53 Cloudy with Light Rain 52 11.1 52 11.1 100 100 ENE 3 6 30.04 1017 5 8 0.02 0.51
9:53 pm 21:53 Cloudy 52 11.1 52 11.1 100 100 Calm 30.05 1018 10 16 0.00 0.03
10:53 pm 22:53 Cloudy with Light Rain 52 11.1 52 11.1 100 100 Calm 30.04 1017 6 10 0.01 0.25
11:06 pm 23:06 Cloudy with Light Rain 52 11.1 52 11.1 100 100 Calm 30.05 1018 5 8 0.00 0.03
11:53 pm 23:53 Cloudy 52 11.1 52 11.1 100 100 Calm 30.02 1017 8 13 0.02 0.51

Powered by AerisWeather